Voltar ao catálogo

COSMOS 1803

AtivoMilitarPO
NORAD 17177·PAYLOAD·🇷🇺 Russia

Lançado Dec 2, 1986 de Plesetsk Cosmodrome

Loading…

Próximas Passagens (próximas 24 horas)

TLE

AtualizadoSource: Space-Track

Época: Sep 14, 2026, 21:31 UTC

1 17177U 86094A   26257.89659065  .00000022  00000-0  90525-4 0  9999
2 17177  82.6079 315.7769 0002457 232.9273 309.0557 12.41548138803086

Acompanhe COSMOS 1803 em tempo real com AllMySat

Download on the App Store